Tracking 25710 objects as of 6-Jul-2022
HD Live streaming from Space Station
objects crossing your sky now

FENGYUN 1C DEB

Track FENGYUN 1C DEB now!
10-day predictions


NORAD ID: 35104
Int'l Code: 1999-025DKG
Perigee: 819.3 km
Apogee: 867.3 km
Inclination: 98.7 °
Period: 101.6 minutes
Semi major axis: 7214 km
RCS: 0.011 m2 (small)
Launch date: May 10, 1999
Source: People's Republic of China (PRC)
Launch site: Taiyaun Space Center, China (TSC)

Note: This is SATELLITE DEBRIS
aabbcc
Your satellite tracking list
Your tracking list is empty




NASA's NSSDC Master Catalog

Two Line Element Set (TLE):
1 35104U 99025DKG 22186.55125618  .00000346  00000-0  19304-3 0  9993
2 35104  98.6606 212.7133 0033287 158.0113 354.4606 14.16819452719591
Source of the keplerian elements: AFSPC